Back to catalog

STARLINK-30408

AliveCommunicationsVLEO
NORAD 57824·PAYLOAD·🇺🇸 United States

Launched Sep 9, 2023 from Cape Canaveral Space Force Station

Loading…

Next Passes (next 24 hours)

TLE

FreshSource: CelesTrak SupGP

Epoch: Sep 14, 2026, 22:03 UTC

1 57824C 23138S   26257.91923611  .00035554  00000+0  12879-2 0  2574
2 57824  42.9996 245.2866 0001253 258.4896  11.4956 15.27557480    14

Track STARLINK-30408 in real time with AllMySat

Download on the App Store